Milas, Turkey

3:20 PM +03 on May 24, 2018 (GMT +0300)
Bodrum

Weather History for LTFE - October, 2011

Change the Weather History Date:

Sunday, October 9, 2011

  Actual Average Record
Temperature  
Mean Temperature 72 °F -  
Max Temperature 77 °F - - ()
Min Temperature 66 °F - - ()
Cooling Degree Days 6    
Growing Degree Days 22 (Base 50)    
Moisture  
Dew Point 65 °F    
Average Humidity 83    
Maximum Humidity 100    
Minimum Humidity 57    
Precipitation  
Precipitation 0.00 in - - ()
Sea Level Pressure  
Sea Level Pressure 29.75 in    
Wind  
Wind Speed 10 mph ()    
Max Wind Speed 26 mph    
Max Gust Speed 39 mph    
Visibility 5.6 miles    
Events Rain , Thunderstorm    
T = Trace of Precipitation, MM = Missing Value Source: Averaged Metar Reports

Daily Weather History Graph

Daily Weather History Graph

Search for Another Location

Airport or City:

Astronomy

Oct. 09, 2011 Rise Set
Actual Time 7:11 AM EEST 6:41 PM EEST
Civil Twilight 6:45 AM EEST 7:07 PM EEST
Nautical Twilight 6:14 AM EEST 7:37 PM EEST
Astronomical Twilight 5:44 AM EEST 8:07 PM EEST
Moon 5:08 PM EEST (10/9) 4:39 AM EEST (10/9)
Length of Visible Light 12h 22m
Length of Day
11h 30m
Waxing Gibbous, 93% of the Moon is Illuminated
Oct 9
Waxing Gibbous
Oct 12
Full
Oct 20
Last Quarter
Oct 26
New
Nov 2
First Quarter

Hourly Weather History & Observations

Time (EEST) Temp. Dew Point Humidity Pressure Visibility Wind Dir Wind Speed Gust Speed Precip Events Conditions
12:20 AM 71.6 °F 62.6 °F 73% 29.86 in 6.2 mi East 5.8 mph - N/A Rain Light Rain Showers
12:50 AM 71.6 °F 62.6 °F 73% 29.83 in 6.2 mi East 8.1 mph - N/A Rain Light Rain Showers
1:20 AM 73.4 °F 62.6 °F 69% 29.83 in 6.2 mi SSE 8.1 mph - N/A   Mostly Cloudy
1:50 AM 71.6 °F 62.6 °F 73% 29.80 in 6.2 mi SE 9.2 mph - N/A Rain Light Rain Showers
2:20 AM 73.4 °F 62.6 °F 69% 29.80 in 6.2 mi SSE 10.4 mph - N/A Rain Light Rain Showers
2:50 AM 71.6 °F 64.4 °F 78% 29.77 in 6.2 mi SE 11.5 mph - N/A Rain Light Rain Showers
3:20 AM 71.6 °F 62.6 °F 73% 29.77 in 6.2 mi SE 6.9 mph - N/A   Mostly Cloudy
3:50 AM 71.6 °F 62.6 °F 73% 29.74 in 6.2 mi SE 12.7 mph 25.3 mph N/A   Mostly Cloudy
4:20 AM 71.6 °F 62.6 °F 73% 29.74 in 6.2 mi SE 8.1 mph - N/A   Mostly Cloudy
4:50 AM 71.6 °F 60.8 °F 69% 29.71 in 6.2 mi SSE 17.3 mph 29.9 mph N/A   Mostly Cloudy
5:20 AM 73.4 °F 60.8 °F 65% 29.71 in 6.2 mi SE 20.7 mph 32.2 mph N/A   Mostly Cloudy
5:50 AM 73.4 °F 60.8 °F 65% 29.71 in 6.2 mi SE 17.3 mph 28.8 mph N/A   Mostly Cloudy
6:20 AM 73.4 °F 60.8 °F 65% 29.71 in 6.2 mi SSE 21.9 mph - N/A   Mostly Cloudy
6:50 AM 73.4 °F 60.8 °F 65% 29.68 in 6.2 mi SSE 18.4 mph - N/A   Mostly Cloudy
7:20 AM 73.4 °F 60.8 °F 65% 29.68 in 6.2 mi SSE 21.9 mph 33.4 mph N/A   Mostly Cloudy
7:50 AM 75.2 °F 60.8 °F 61% 29.65 in 6.2 mi SE 25.3 mph 36.8 mph N/A   Mostly Cloudy
8:20 AM 77.0 °F 60.8 °F 57% 29.68 in 6.2 mi SSE 21.9 mph 33.4 mph N/A   Mostly Cloudy
8:50 AM 77.0 °F 62.6 °F 61% 29.68 in 4.3 mi SSE 26.5 mph - N/A Rain , Thunderstorm Light Thunderstorms and Rain
9:20 AM 73.4 °F 64.4 °F 73% 29.71 in 3.7 mi SSE 25.3 mph 39.1 mph N/A Rain , Thunderstorm Light Thunderstorms and Rain
9:50 AM 68.0 °F 66.2 °F 94% 29.71 in 0.2 mi SSE 24.2 mph 35.7 mph N/A Rain , Thunderstorm Heavy Thunderstorms and Rain
10:20 AM 66.2 °F 66.2 °F 100% 29.74 in 3.7 mi South 10.4 mph 34.5 mph N/A Rain , Thunderstorm Light Thunderstorms and Rain
10:50 AM 68.0 °F 66.2 °F 94% 29.77 in 4.3 mi WSW 6.9 mph - N/A   Mostly Cloudy
11:20 AM 68.0 °F 68.0 °F 100% 29.77 in 6.2 mi NE 6.9 mph - N/A   Mostly Cloudy
11:50 AM 68.0 °F 68.0 °F 100% 29.77 in 6.2 mi East 4.6 mph - N/A   Mostly Cloudy
12:20 PM 69.8 °F 68.0 °F 94% 29.77 in 6.2 mi ESE 8.1 mph - N/A   Mostly Cloudy
12:50 PM 71.6 °F 66.2 °F 83% 29.77 in 6.2 mi South 6.9 mph - N/A   Mostly Cloudy
1:20 PM 73.4 °F 66.2 °F 78% 29.77 in 6.2 mi South 5.8 mph - N/A   Mostly Cloudy
1:50 PM 75.2 °F 64.4 °F 69% 29.77 in 6.2 mi SSW 8.1 mph - N/A   Mostly Cloudy
2:20 PM 75.2 °F 64.4 °F 69% 29.74 in 6.2 mi SW 8.1 mph - N/A   Mostly Cloudy
2:50 PM 75.2 °F 64.4 °F 69% 29.74 in 6.2 mi SSW 8.1 mph - N/A   Mostly Cloudy
3:20 PM 75.2 °F 66.2 °F 73% 29.74 in 5.0 mi SW 6.9 mph - N/A Rain , Thunderstorm Light Thunderstorms and Rain
3:50 PM 69.8 °F 66.2 °F 88% 29.71 in 1.3 mi WSW 10.4 mph - N/A Rain , Thunderstorm Thunderstorms and Rain
4:20 PM 68.0 °F 66.2 °F 94% 29.74 in 1.2 mi SW 6.9 mph - N/A Rain , Thunderstorm Thunderstorms and Rain
4:50 PM 66.2 °F 66.2 °F 100% 29.71 in 4.3 mi SSW 6.9 mph - N/A Rain , Thunderstorm Light Thunderstorms and Rain
5:20 PM 68.0 °F 66.2 °F 94% 29.74 in 3.7 mi SSW 8.1 mph - N/A Rain , Thunderstorm Light Thunderstorms and Rain
5:50 PM 68.0 °F 66.2 °F 94% 29.77 in 6.2 mi SSE 5.8 mph - N/A Rain , Thunderstorm Light Thunderstorms and Rain
6:20 PM 66.2 °F 66.2 °F 100% 29.74 in 6.2 mi East 8.1 mph - N/A Rain , Thunderstorm Light Thunderstorms and Rain
6:50 PM 68.0 °F 68.0 °F 100% 29.74 in 6.2 mi SE 6.9 mph - N/A Rain Light Rain Showers
7:20 PM 66.2 °F 66.2 °F 100% 29.74 in 6.2 mi East 3.5 mph - N/A   Mostly Cloudy
7:50 PM 66.2 °F 66.2 °F 100% 29.74 in 6.2 mi North 2.3 mph - N/A   Mostly Cloudy
8:20 PM 66.2 °F 66.2 °F 100% 29.77 in 6.2 mi Calm Calm - N/A   Mostly Cloudy
8:50 PM 66.2 °F 66.2 °F 100% 29.77 in 6.2 mi ENE 3.5 mph - N/A   Mostly Cloudy
9:20 PM 66.2 °F 66.2 °F 100% 29.77 in 6.2 mi Calm Calm - N/A   Mostly Cloudy
9:50 PM 66.2 °F 66.2 °F 100% 29.77 in 6.2 mi West 4.6 mph - N/A   Mostly Cloudy
10:20 PM 68.0 °F 66.2 °F 94% 29.77 in 6.2 mi Variable 2.3 mph - N/A   Mostly Cloudy
10:50 PM 68.0 °F 66.2 °F 94% 29.77 in 6.2 mi NE 3.5 mph - N/A Rain Light Rain Showers
11:20 PM 66.2 °F 66.2 °F 100% 29.77 in 6.2 mi NNE 3.5 mph - N/A   Mostly Cloudy
11:50 PM 66.2 °F 66.2 °F 100% 29.74 in 6.2 mi SE 3.5 mph - N/A   Mostly Cloudy